Location: Unspecified
(0.0000°N, 0.0000°E)
Time: 20:32:58
(UTC+00:00)

Tiros 1 despin weight - Pass Details

Date: 03 June 2022
Orbit: 591 x 639 km, 48.2° (Epoch: 25 June)

Event Time Altitude Azimuth Distance (km) Brightness Sun altitude
Rises 12:40:16 0° 243° (WSW) 2,932 ? 65.4°
Reaches altitude 10° 12:43:01 10° 258° (WSW) 2,020 ? 65.1°
Maximum altitude 12:46:39 22° 309° (NW) 1,367 ? 64.7°
Drops below altitude 10° 12:50:17 10° 1° (N) 2,004 ? 64.3°
Sets 12:53:00 0° 16° (NNE) 2,902 ? 64.0°
